This is the latest recevied weather packets stored in our database for station/object HJ3GNC-15. If no packets are shown the sender has not sent any weather packets the latest 10 day(s).
| Time | Temp. | Humidity | Pressure | Rain* | Wind** | Luminosity | Snow |
|---|---|---|---|---|---|---|---|
| 1777762199 | 22.22° C | 89% | 1013 hPa | 0 mm | - | - | - |
| 1777761255 | 21.67° C | 89% | 1013 hPa | 0 mm | - | - | - |
| 1777760312 | 21.11° C | 89% | 1012 hPa | 0 mm | - | - | - |
| 1777759368 | 20.56° C | 89% | 1013 hPa | 0 mm | - | - | - |
| 1777758419 | 20° C | 89% | 1013 hPa | 0 mm | - | - | - |
| 1777757478 | 19.44° C | 89% | 1013 hPa | 0 mm | - | - | - |
| 1777756537 | 18.89° C | 89% | 1013 hPa | 0 mm | - | - | - |
| 1777755594 | 18.33° C | 89% | 1013 hPa | 0 mm | - | - | - |
| 1777754648 | 17.78° C | 89% | 1013 hPa | 0 mm | - | - | - |
| 1777753704 | 17.78° C | 82% | 1013 hPa | 0 mm | - | - | - |
| 1777752760 | 17.78° C | 83% | 1013 hPa | 0 mm | - | - | - |
| 1777751813 | 17.78° C | 84% | 1013 hPa | 0 mm | - | - | - |
| 1777750872 | 17.78° C | 84% | 1013 hPa | 0 mm | - | - | - |
| 1777749928 | 17.22° C | 82% | 1013 hPa | 0 mm | - | - | - |
| 1777748020 | 17.22° C | 85% | 1014 hPa | 0 mm | - | - | - |
| 1777747063 | 17.22° C | 85% | 1014 hPa | 0 mm | - | - | - |
| 1777746117 | 17.78° C | 86% | 1014 hPa | 0 mm | - | - | - |
| 1777745172 | 17.22° C | 87% | 1015 hPa | 0 mm | - | - | - |
| 1777744229 | 17.22° C | 89% | 1015 hPa | 0 mm | - | - | - |
| 1777743285 | 17.22° C | 89% | 1015 hPa | 0 mm | - | - | - |
| 1777742320 | 17.78° C | 83% | 1015 hPa | 0 mm | - | - | - |
| 1777741378 | 17.78° C | 82% | 1015 hPa | 0 mm | - | - | - |
| 1777740436 | 17.78° C | 83% | 1015 hPa | 0 mm | - | - | - |
| 1777739494 | 17.78° C | 83% | 1015 hPa | 0 mm | - | - | - |
| 1777738555 | 17.22° C | 77% | 1015 hPa | 0 mm | - | - | - |
* Rain latest hour (hover to see other rain measurements)
** Current wind speed in m/s (hover to see current wind gust speed)